Location: Newark
(40.7060°N, 73.9980°W)
Time: 12:27:56
(UTC+00:00)

N. Korean satellite - Pass Details

Date: 19 November 2019
Orbit: 455 x 506 km, 97.2° (Epoch: 10 December)

Event Time Altitude Azimuth Distance (km) Brightness Sun altitude
Rises 10:51:25 0° 11° (N) 2,613 10.2 -10.7°
Reaches altitude 10° 10:53:31 10° 10° (N) 1,720 9.3 -10.3°
Maximum altitude 10:57:14 84° 282° (WNW) 507 6.6 -9.6°
Drops below altitude 10° 11:00:52 10° 195° (SSW) 1,683 9.3 -9.0°
Sets 11:02:54 0° 195° (SSW) 2,552 10.3 -8.6°
